Powrót do katalogu

COSMOS 970 DEB

AktywnyLEO
NORAD 14906·DEBRIS·🇷🇺 Russia

Wystrzelony Dec 21, 1977 z Baikonur Cosmodrome

Loading…

Następne Przeloty (najbliższe 24 godziny)

TLE

ŚwieżeSource: Space-Track

Epoka: Sep 14, 2026, 05:04 UTC

1 14906U 77121BK  26257.21120463  .00000162  00000-0  24971-3 0  9994
2 14906  65.9528 325.7003 0107055  61.7345 331.7922 13.73294596142598

Śledź COSMOS 970 DEB w czasie rzeczywistym z AllMySat

Download on the App Store